DELTA 1 DEB, 7181

Orbit data source: Space-Track

DELTA 1 DEB, 7181 is space debris in SSO originally from a launch on Tue, 06 Nov 1973 UTC launched from the Air Force Western Test Range (AFWTR). Debris objects in space refer to the collection of defunct objects orbiting the Earth. Examples of debris include non-operational satellites, rocket bodies, and fragments generated from explosions, collisions, or faulty payload assembly.

Loading next visibility...
Identifier
7181, 1973-086ES
Orbit
SSO
Country
Flag of USUS
Related business
Manufacturer
Unknown
Mission
Spacecraft
Bus & Motor
Unknown
Mass
Unknown
Launch date (UTC)
1973-11-06 (52 years ago)
Launch vehicle
Unknown
Launch site
Air Force Western Test Range (AFWTR)
Object type
Payload
Rocket body
Debris
Shape & HBR
Unknown shape, 0.1 m
Radar Cross Section
Small (<0.1 m²)

Expand to show TLE details & history
Last TLE update: 12 hours ago

TLE from 12 hours ago
0 DELTA 1 DEB
1 07181U 73086ES  25304.30044559  .00000252  00000-0  17669-2 0  9995
2 07181 102.3662  66.9037 0103900 173.9478 243.7309 12.57106571381658
Epoch: 2025-10-31T07:12Z
TLE epoch observation values (Epoch: 2025-10-31T07:12:38.498Z)
Latitude
54.7456°
Longitude
-99.08184°
Altitude
1,480.334 km
Speed
7.112 km/s
True Right ascension
03h 15m 42s
True Declination
54° 35' 54"
Sunlit
Object was in full shadow at epoch
Visualization orbit readout
Latitude
Unknown
Longitude
Unknown
Altitude
Unknown
Speed
Unknown
Apparent Right ascension
Unknown
Apparent Declination
Unknown
Sunlit
N/A
Visualization observer readout
Local Sidereal Time
14:26:21
Azimuth
Unknown
Elevation
Unknown
Doppler factor
Unknown
Orbital elements
Apogee altitude
1,513.637 km
Perigee altitude
1,351.332 km
Semi-major axis
7,810.621 km
Eccentricity
0.01039
Inclination
102.3662°
RAAN
66.9037°
Arg. of periapsis
173.9478°
True anomaly
242.66942°
Mean anomaly
243.7309°
Eccentric anomaly
243.19954°
Mean motion
3.14423 °/min
Orbital period
114.5 mins
BSTAR
0.0017669
Loading maneuver chart data...
Computing Atmospheric mass density...
Loading historical data...
Loading historical data...
Loading historical data...
Loading historical data...
Loading historical data...
Loading historical data...
Loading historical data...

Documentation

Showing up to 5 results
|